Sheboygan Falls, WI

9:56 AM CDT on August 25, 2016 (GMT -0500)
Sheboygan County Memorial

Weather History for KSBM - May, 2013

Change the Weather History Date:

Thursday, May 16, 2013

  Actual Average Record
Temperature  
Mean Temperature 61 °F -  
Max Temperature 70 °F 65 °F 83 °F (1951)
Min Temperature 53 °F 44 °F 30 °F (1997)
Degree Days  
Heating Degree Days 4    
Growing Degree Days 11 (Base 50)    
Moisture  
Dew Point 42 °F    
Average Humidity 52    
Maximum Humidity 65    
Minimum Humidity 42    
Precipitation  
Precipitation 0.00 in - - ()
Sea Level Pressure  
Sea Level Pressure 29.94 in    
Wind  
Wind Speed 9 mph (NNE)    
Max Wind Speed 16 mph    
Max Gust Speed -    
Visibility 10 miles    
Events      
Averages and records for this station are not official NWS values.
T = Trace of Precipitation, MM = Missing Value Source: NWS Daily Summary

Daily Weather History Graph

Daily Weather History Graph

Search for Another Location

Airport or City:

Trip Planner

Search our weather history database for the weather conditions in past years. The results will help you decide how hot, cold, wet, or windy it might be!

Date:

Astronomy

May. 16, 2013 Rise Set
Actual Time 5:24 AM CDT 8:11 PM CDT
Civil Twilight 4:51 AM CDT 8:45 PM CDT
Nautical Twilight 4:09 AM CDT 9:27 PM CDT
Astronomical Twilight 3:20 AM CDT 10:16 PM CDT
Moon 11:01 AM CDT (5/16) 12:29 AM CDT (5/16)
Length of Visible Light 15h 53m
Length of Day
14h 46m
Waxing Crescent, 36% of the Moon is Illuminated
May 16
Waxing Crescent
May 17
First Quarter
May 24
Full
May 31
Last Quarter
Jun 8
New

Hourly Weather History & Observations

Time (CDT) Temp. Dew Point Humidity Pressure Visibility Wind Dir Wind Speed Gust Speed Precip Events Conditions
12:53 AM 62.1 °F 43.0 °F 50% 29.83 in 10.0 mi West 8.1 mph - N/A   Clear
1:53 AM 62.1 °F 44.1 °F 52% 29.82 in 10.0 mi West 6.9 mph - N/A   Clear
2:53 AM 59.0 °F 45.0 °F 60% 29.83 in 10.0 mi West 5.8 mph - N/A   Clear
3:53 AM 60.1 °F 45.0 °F 57% 29.85 in 10.0 mi WNW 8.1 mph - N/A   Clear
4:53 AM 59.0 °F 45.0 °F 60% 29.86 in 10.0 mi WNW 6.9 mph - N/A   Clear
5:53 AM 57.9 °F 46.0 °F 65% 29.87 in 10.0 mi NW 8.1 mph - N/A   Clear
6:53 AM 60.1 °F 48.0 °F 64% 29.89 in 10.0 mi NW 5.8 mph - N/A   Clear
7:53 AM 66.0 °F 48.0 °F 52% 29.91 in 10.0 mi North 5.8 mph - N/A   Clear
8:53 AM 69.1 °F 45.0 °F 42% 29.92 in 10.0 mi NNE 10.4 mph - N/A   Clear
9:53 AM 68.0 °F 45.0 °F 43% 29.94 in 10.0 mi ENE 13.8 mph - N/A   Clear
10:53 AM 62.1 °F 44.1 °F 52% 29.97 in 10.0 mi ENE 13.8 mph - N/A   Clear
11:53 AM 61.0 °F 44.1 °F 54% 29.97 in 10.0 mi NE 15.0 mph - N/A   Clear
12:53 PM 60.1 °F 41.0 °F 49% 29.97 in 10.0 mi NE 16.1 mph - N/A   Clear
2:53 PM 62.1 °F 42.1 °F 48% 29.98 in 10.0 mi ENE 11.5 mph - N/A   Clear
3:53 PM 60.1 °F 41.0 °F 49% 29.98 in 10.0 mi ENE 13.8 mph - N/A   Clear
5:53 PM 60.1 °F 37.9 °F 44% 29.97 in 10.0 mi ENE 10.4 mph - N/A   Clear
6:53 PM 57.0 °F 34.0 °F 42% 29.98 in 10.0 mi East 6.9 mph - N/A   Scattered Clouds
7:53 PM 55.0 °F 35.1 °F 47% 29.99 in 10.0 mi ENE 8.1 mph - N/A   Overcast
8:53 PM 54.0 °F 35.1 °F 49% 30.01 in 10.0 mi NE 10.4 mph - N/A   Overcast
9:53 PM 54.0 °F 36.0 °F 51% 30.04 in 10.0 mi NE 9.2 mph - N/A   Overcast
10:53 PM 53.1 °F 37.0 °F 55% 30.04 in 10.0 mi NE 11.5 mph - N/A   Overcast
11:53 PM 53.1 °F 36.0 °F 52% 30.04 in 10.0 mi NE 13.8 mph - N/A   Mostly Cloudy